368  
ASUS45 KREV 231110  
RWRNV  
NEVADA REGIONAL WEATHER ROUNDUP  
NATIONAL WEATHER SERVICE RENO NV  
400 AM PDT MON APR 23 2018  
 
NOTE: "FAIR" INDICATES FEW OR NO CLOUDS BELOW 12,000 FEET WITH NO  
SIGNIFICANT WEATHER AND/OR S TO VISIBILITY
.  
 
NVZ001-003-004-231200-  
WESTERN NEVADA  
 
CITY SKY/WX TMP DP RH WIND PRES REMARKS
 
RENO PTCLDY 48 28 46 SW3 30.15R  
CARSON CITY FAIR 41 27 56 CALM 30.15R  
MINDEN FAIR 34 28 80 CALM 30.16R  
SLIDE MTN N/A 36 21 55 N5 N/A  
FALLON CLEAR 47 29 49 NW7 30.12R  
LOVELOCK PTCLDY 46 20 35 E5 30.13R  
HAWTHORNE CLEAR 54 27 35 W6 30.10R  

 
 
NVZ002-CAZ072-073-231200-  
NORTHERN AND CENTRAL SIERRA  
 
CITY SKY/WX TMP DP RH WIND PRES REMARKS
 
S. LAKE TAHOE PTCLDY 30 27 88 S3 30.17S  
TRUCKEE MOCLDY 30 28 93 CALM 30.19S  
SQUAW VLY 8000 N/A 36 25 64 CALM N/A  
BLUE CANYON PTCLDY 52 21 29 NE5 30.11  
MAMMOTH LAKES FAIR 33 25 71 CALM 30.18S  
BRIDGEPORT FAIR 31 21 66 CALM 30.18R  

 
 
NVZ030-031-036-231200-  
NORTHERN NEVADA  
 
CITY SKY/WX TMP DP RH WIND PRES REMARKS
 
ELKO CLEAR 37 31 78 SW3 30.14R  
WINNEMUCCA PTCLDY 37 24 59 W7 30.17R  
WENDOVER PTCLDY 57 30 35 NW17G26 30.04R  

 
 
NVZ035-037-231200-  
CENTRAL NEVADA  
 
CITY SKY/WX TMP DP RH WIND PRES REMARKS
 
ELY CLEAR 34 24 67 S9 30.12R  
EUREKA N/A 34 29 82 S6 30.15R  

 
 
NVZ013-014-231200-  
SOUTH CENTRAL NEVADA  
 
CITY SKY/WX TMP DP RH WIND PRES REMARKS
 
TONOPAH PTCLDY 50 25 37 N8 30.09R  

 
 
NVZ017-020-022-231200-  
SOUTHERN NEVADA  
 
CITY SKY/WX TMP DP RH WIND PRES REMARKS
 
LAS VEGAS PTCLDY 74 27 17 S12 29.88R  
N. LAS VEGAS CLEAR 64 20 18 NW5 29.88R  
NELLIS AFB NOT AVBL  
HENDERSON CLEAR 70 27 20 SW14 29.92R  
MERCURY CLEAR 62 22 21 NW12 29.94R  

 
 
 
CLICK HERE TO GO TO PREVIOUS BULLETINS.

The Nexlab NV Page Main Text Page